Regional Weather Roundup
Issued by NWS

Home | Current Version | Previous Version | Graphics & Text | Print | Product List | Glossary On
Versions: 1 2 3 4 5 6 7 8 9 10 11 12 13 14 15 16 17 18 19 20 21 22 23 24 25 26 27 28 29 30 31 32 33 34 35 36 37 38 39 40 41 42 43 44 45 46 47 48 49 50
000
ASUS43 KMPX 190710
RWRMN
WEATHER ROUNDUP FOR MINNESOTA
NATIONAL WEATHER SERVICE TWIN CITIES/CHANHASSEN MN
100 AM CST MON FEB 19 2018


NOTE: "FAIR" INDICATES FEW OR NO CLOUDS BELOW 12,000 FEET WITH NO
SIGNIFICANT WEATHER AND/OR OBSTRUCTIONS TO VISIBILITY. N/A MEANS
CURRENT SKY AND/OR WEATHER CONDITIONS ARE NOT AVAILABLE.

MNZ060>063-068>070-190800-
   Twin Cities Metro

CITY           SKY/WX    TMP DP  RH WIND       PRES   REMARKS
TWIN CITIES    FAIR      26  23  88 N12       29.76S WCI  16
ST PAUL        FAIR      26  22  84 N5        29.78S WCI  20
CRYSTAL        CLOUDY    27  21  78 N13       29.76S WCI  16
BLAINE         MOCLDY    28  25  86 N17       29.77S WCI  16
LAKEVILLE      FAIR      25  21  86 N10       29.75R WCI  15
EDEN PRAIRIE   FAIR      27  21  78 N12       29.74R WCI  17
SOUTH ST PAUL  FAIR      27  22  84 N9        29.76R WCI  17
LAKE ELMO      FAIR      28  23  80 N7        29.77R WCI  21
$$
MNZ001>005-007-008-013>017-022>024-027-028-190800-
   Northwest Minnesota

CITY           SKY/WX    TMP DP  RH WIND       PRES   REMARKS
BEMIDJI        FAIR       4   1  85 N9        30.01R WCI -10
HALLOCK        FAIR       1  -6  71 N12       30.15R WCI -15
WARROAD        FAIR       1  -4  78 N9        30.08S WCI -14
THIEF RVR FALL FAIR       4  -3  73 N12       30.11R WCI -12
CROOKSTON      FAIR       7  -2  66 N10       30.13R WCI  -8
FOSSTON        FAIR       0  -6  78 N6        30.06R WCI -12
DETROIT LAKES  FAIR      10   5  79 N7        30.00R WCI   0
MOORHEAD       FAIR       7   1  78 N17       30.07R WCI -12
PARK RAPIDS    CLOUDY     9   4  80 N13       29.94R WCI  -7
MAHNOMEN       PTSUNNY    4   0  80 N10       30.04R WCI -11
$$
MNZ006-009>011-018-025>026-190800-
   North Central Minnesota

CITY           SKY/WX    TMP DP  RH WIND       PRES   REMARKS
BAUDETTE       FAIR       4  -2  76 N7        30.04R WCI  -8
FLAG ISLAND    FAIR       0  -6  78 N8        30.08R WCI -15
INTL FALLS     MOCLDY     4   0  83 N6        30.02R WCI  -7
WASKISH        FAIR       3   0  85 N3        30.05R
BIG FORK       FAIR       3   0  85 N6        29.98R WCI  -8
LONGVILLE      CLOUDY     9   3  78 N7        29.94S WCI  -3
GRAND RAPIDS   MOCLDY     6   2  83 N9        29.96R WCI  -8
CRANE LAKE     FAIR      -8 -11  84 CALM      30.03R
ORR            FAIR       0  -6  78 CALM      29.97R
COOK           MOCLDY     1   0  92 CALM      29.98R
WALKER         CLOUDY     7   3  83 N8        29.98R WCI  -6
$$
MNZ012-019>021-037-190800-
   Northeast Minnesota

CITY           SKY/WX    TMP DP  RH WIND       PRES   REMARKS
DULUTH         CLOUDY    13   7  77 N13       29.86S WCI  -2
ELY            CLOUDY     5   1  85 N3        29.94R
HIBBING        FAIR       4   1  88 N8        29.93R WCI  -9
EVELETH        FAIR     N/A N/A N/A NE8       29.93S
DULUTH HARBOR  CLOUDY    19  16  86 N16       29.93R WCI   5
TWO HARBORS    CLOUDY    16  10  79 N6        29.89R WCI   7
GRAND MARAIS     N/A     14   4  64 N14G25    29.93R WCI  -1
G MARAIS ARPRT CLOUDY     7   0  72 N10       29.86R WCI  -8
$$
MNZ029>031-032-039>041-046>048-054>057-064-190800-
   West Central Minnesota

CITY           SKY/WX    TMP DP  RH WIND       PRES   REMARKS
FERGUS FALLS   MOCLDY    10   5  79 N13       29.99R WCI  -5
WHEATON        CLOUDY    10   5  79 NW20G26   30.01R WCI  -8
MORRIS         CLOUDY    16   9  73 N23       29.89F WCI  -2
ALEXANDRIA     CLOUDY    13   8  81 N21       29.88R WCI  -5
ELBOW LAKE     CLOUDY    13   8  79 N14       29.94R WCI  -2
WADENA         CLOUDY    10   5  79 N15       29.93R WCI  -6
GLENWOOD       FAIR      14  10  85 N17G24    29.85R WCI  -3
APPLETON       CLOUDY    16   9  73 N22       29.89R WCI  -2
BENSON         CLOUDY    18  10  73 NE20      29.88R WCI   1
ORTONVILLE     MOCLDY    12   7  79 N23G29    29.92S WCI  -7
MADISON        MOCLDY    16  10  79 N23       29.89R WCI  -2
WILLMAR        FAIR      19  14  79 N17G23    29.85R WCI   4
$$
MNZ033>034-036-042>043-049>051-058-059-190800-
   Central Minnesota

CITY           SKY/WX    TMP DP  RH WIND       PRES   REMARKS
ST CLOUD       FLURRIES  20  15  81 N16       29.81F WCI   6
SAUK CENTRE    FAIR      14   9  81 N15G23    29.85R WCI  -1
PAYNESVILLE    CLOUDY    19  15  86 N14G23    29.84R WCI   5
AITKIN         CLOUDY    10   5  79 N12G20    29.90R WCI  -4
PINE RIVER     CLOUDY     9   3  78 N12       29.97R WCI  -6
BRAINERD       CLOUDY    12   5  73 N14       29.91R WCI  -3
STAPLES        MOCLDY     9   5  85 N13       29.92R WCI  -7
LONG PRAIRIE   FAIR      12   9  85 NW17G23   29.87R WCI  -5
LITTLE FALLS   CLOUDY    16   5  62 N9G18     29.89R WCI   4
LITCHFIELD     FLURRIES  21  18  86 N12G17    29.80S WCI   9
BUFFALO        CLOUDY    24  19  81 N12       29.81R WCI  13
MAPLE LAKE     CLOUDY    24  19  84 N14G20    29.82R WCI  11
HUTCHINSON     CLOUDY    25  19  80 N9G20     29.79R WCI  15
$$
MNZ037-044-045-052-053-190800-
   East Central Minnesota

CITY           SKY/WX    TMP DP  RH WIND       PRES   REMARKS
PRINCETON      FLURRIES  23  18  80 N16G22    29.81S WCI  10
MORA           MOCLDY    21  14  73 N6        29.84S WCI  14
CAMBRIDGE      FLURRIES  25  16  68 N12G17    29.81R WCI  14
RUSH CITY      CLOUDY    24  20  86 N9G21     29.81S WCI  14
MOOSE LAKE     CLOUDY    18  10  73 N10G17    29.85S WCI   6
HINCKLEY       CLOUDY    21  18  86 N13G20    29.83R WCI   9
CLOQUET        CLOUDY    12   7  79 N12G18    29.87S WCI  -2
MCGREGOR       CLOUDY    14  10  85 N13       29.87F WCI   0
$$
MNZ071>073-080-081-089-090-097-098-190800-
   Southwest Minnesota

CITY           SKY/WX    TMP DP  RH WIND       PRES   REMARKS
MONTEVIDEO     CLOUDY    18  12  79 N15       29.86R WCI   3
GRANITE FALLS  PTCLDY    22  17  80 N15G24    29.85R WCI   9
CANBY          MOCLDY    15  11  82 NW17G25   29.87R WCI  -1
MARSHALL       CLOUDY    15  11  83 N22G29    29.83R WCI  -3
REDWOOD FALLS  CLOUDY    21  15  78 N12       29.80S WCI   9
OLIVIA         PTCLDY    21  18  86 N15       29.80S WCI   8
PIPESTONE      CLOUDY    14  10  85 NE17G30   29.75S WCI  -3
WINDOM         CLOUDY    21   7  53 N25G33    29.74F WCI   4
WORTHINGTON    CLOUDY    19  15  84 N25G31    29.74S WCI   1
JACKSON        CLOUDY    21  18  86 VRB20G26  29.73F WCI   6
TRACY          CLOUDY    18  15  88 N16       29.80S WCI   3
SLAYTON        CLOUDY    16  14  90 N24       29.76S WCI  -2
$$
MNZ065>067-074>077-082>085-091>093-190800-
   South Central Minnesota

CITY           SKY/WX    TMP DP  RH WIND       PRES   REMARKS
MANKATO        MOCLDY    25  22  88 N13       29.76R WCI  14
NEW ULM        CLOUDY    21  18  86 N6        29.78R WCI  14
ST JAMES       CLOUDY    23  19  86 NW20      29.78S WCI   8
FAIRMONT       CLOUDY    23  19  85 N23       29.74S WCI   7
GLENCOE        CLOUDY    26  22  84 N13G20    29.77R WCI  15
FARIBAULT      FAIR      27  25  93 N8        29.75R WCI  18
OWATONNA       FAIR      28  27  93 CALM      29.72R
WASECA         FAIR      28  25  86 N10       29.74R WCI  19
ALBERT LEA     FAIR      32  28  86 W3        29.71R
$$
MNZ078>079-086>088-094>096-190800-
   Southeast Minnesota

CITY           SKY/WX    TMP DP  RH WIND       PRES   REMARKS
ROCHESTER      FAIR      33  29  85 SW6       29.72R WCI  28
RED WING       FAIR      28  25  86 CALM      29.73R
STANTON        FAIR      29  25  86 N10       29.73R WCI  19
DODGE CENTER   FAIR      30  28  93 CALM      29.71R
WINONA         MOCLDY    41  30  65 S7        29.70F
AUSTIN         FAIR      34  28  80 SE5       29.70F WCI  30
PRESTON        CLOUDY    36  29  75 S10       29.72R
$$
ABBREVIATIONS USED IN REMARKS
   TC - TEMPERATURES IN CELSIUS
  WCI - WIND CHILL INDEX
   HX - HEAT INDEX
  VSB - VISIBILITY
$$




USA.gov is the U.S. government's official web portal to all federal, state and local government web resources and services.